Terminal Aerodrome Forecast
Issued by NWS

Home | Current Version | Previous Version | Graphics & Text | Print | Product List | Glossary On
Versions: 1 2 3 4 5 6 7 8 9 10 11 12 13 14 15 16 17 18 19 20 21
000
FTUS43 KGRB 271307 AAA
TAFATW
TAF AMD
KATW 271307Z 2713/2812 VRB03KT 4SM BR BKN002
      TEMPO 2713/2714 P6SM NSW SCT005
     FM271400 17003KT 6SM BR SKC
     FM271600 16005KT P6SM SCT250
     FM280000 19003KT P6SM BKN250
     FM281000 VRB03KT P6SM SCT050 BKN100=

USA.gov is the U.S. government's official web portal to all federal, state and local government web resources and services.